Thedford, NE

9:00 PM CDT on April 30, 2017 (GMT -0500)
Thedford

Weather History for KTIF - June, 2013

Change the Weather History Date:

Thursday, June 20, 2013

  Actual Average (KANW) Record (KANW)
Temperature  
Mean Temperature 77 °F -  
Max Temperature 86 °F 76 °F 89 °F (2005)
Min Temperature 68 °F 54 °F 44 °F (2001)
Cooling Degree Days 12    
Growing Degree Days 27 (Base 50)    
Moisture  
Dew Point 63 °F    
Average Humidity 64    
Maximum Humidity 84    
Minimum Humidity 45    
Precipitation  
Precipitation 0.00 in - - ()
Sea Level Pressure  
Sea Level Pressure 29.82 in    
Wind  
Wind Speed 13 mph (SSE)    
Max Wind Speed 26 mph    
Max Gust Speed 36 mph    
Visibility 10 miles    
Events      
Averages and records for this station are not official NWS values.
T = Trace of Precipitation, MM = Missing Value Source: NWS Daily Summary

Daily Weather History Graph

Daily Weather History Graph

Search for Another Location

Airport or City:

Trip Planner

Search our weather history database for the weather conditions in past years. The results will help you decide how hot, cold, wet, or windy it might be!

Date:

Astronomy

Jun. 20, 2013 Rise Set
Actual Time 6:06 AM CDT 9:21 PM CDT
Civil Twilight 5:32 AM CDT 9:55 PM CDT
Nautical Twilight 4:47 AM CDT 10:39 PM CDT
Astronomical Twilight 3:54 AM CDT 11:33 PM CDT
Moon 6:23 PM CDT (6/20) 3:36 AM CDT (6/20)
Length of Visible Light 16h 23m
Length of Day
15h 14m
Waxing Gibbous, 89% of the Moon is Illuminated
Jun 20
Waxing Gibbous
Jun 23
Full
Jun 29
Last Quarter
Jul 8
New
Jul 15
First Quarter

Hourly Weather History & Observations

Time (CDT) Temp. Heat Index Dew Point Humidity Pressure Visibility Wind Dir Wind Speed Gust Speed Precip Events Conditions
12:15 AM 71.8 °F - 59.4 °F 65% 29.84 in 10.0 mi SSE 18.4 mph - N/A   Clear
12:35 AM 71.2 °F - 59.2 °F 66% 29.83 in 10.0 mi SSE 17.3 mph 23.0 mph N/A   Clear
12:55 AM 70.7 °F - 59.2 °F 67% 29.82 in 10.0 mi SSE 16.1 mph - N/A   Clear
1:15 AM 71.1 °F - 59.0 °F 66% 29.82 in 10.0 mi SSE 17.3 mph 23.0 mph N/A   Clear
1:35 AM 72.0 °F - 58.8 °F 63% 29.81 in 10.0 mi SSE 19.6 mph 28.8 mph N/A   Clear
1:55 AM 73.0 °F - 58.8 °F 61% 29.81 in 10.0 mi South 23.0 mph 28.8 mph N/A   Clear
2:15 AM 73.4 °F - 59.0 °F 61% 29.81 in 10.0 mi South 26.5 mph 35.7 mph N/A   Clear
2:35 AM 72.3 °F - 59.5 °F 64% 29.82 in 10.0 mi SSE 19.6 mph 28.8 mph N/A   Clear
2:55 AM 71.8 °F - 59.9 °F 66% 29.82 in 10.0 mi SSE 21.9 mph 29.9 mph N/A   Clear
3:15 AM 71.4 °F - 59.9 °F 67% 29.82 in 10.0 mi South 19.6 mph 25.3 mph N/A   Clear
3:35 AM 70.9 °F - 60.3 °F 69% 29.82 in 10.0 mi South 20.7 mph - N/A   Clear
3:55 AM 70.3 °F - 60.4 °F 71% 29.82 in 10.0 mi South 17.3 mph 24.2 mph N/A   Clear
4:15 AM 70.2 °F - 60.8 °F 72% 29.81 in 10.0 mi SSE 17.3 mph 25.3 mph N/A   Clear
4:35 AM 70.2 °F - 60.8 °F 72% 29.80 in 10.0 mi South 17.3 mph 26.5 mph N/A   Clear
4:55 AM 69.8 °F - 61.0 °F 73% 29.80 in 10.0 mi SSE 20.7 mph 31.1 mph N/A   Clear
5:15 AM 69.4 °F - 61.0 °F 74% 29.79 in 10.0 mi SSE 20.7 mph 26.5 mph N/A   Clear
5:35 AM 69.3 °F - 61.2 °F 75% 29.77 in 10.0 mi SSE 24.2 mph 28.8 mph N/A   Clear
5:55 AM 69.4 °F - 61.2 °F 75% 29.77 in 10.0 mi SSE 25.3 mph 34.5 mph N/A   Clear
6:15 AM 68.9 °F - 61.3 °F 77% 29.77 in 10.0 mi SSE 19.6 mph 26.5 mph N/A   Clear
6:35 AM 68.5 °F - 61.7 °F 79% 29.78 in 10.0 mi SSE 21.9 mph 29.9 mph N/A   Clear
6:55 AM 68.9 °F - 62.1 °F 79% 29.83 in 10.0 mi SSE 4.6 mph - N/A   Scattered Clouds
7:15 AM 69.3 °F - 62.1 °F 78% 29.83 in 10.0 mi South 8.1 mph 11.5 mph N/A   Overcast
7:35 AM 69.4 °F - 62.4 °F 78% 29.82 in 10.0 mi SSE 10.4 mph - N/A   Overcast
7:55 AM 69.8 °F - 62.6 °F 78% 29.83 in 10.0 mi SSE 8.1 mph - N/A   Overcast
8:15 AM 69.8 °F - 62.6 °F 78% 29.83 in 10.0 mi SE 5.8 mph - N/A   Overcast
8:35 AM 70.3 °F - 62.8 °F 77% 29.82 in 10.0 mi SSE 6.9 mph - N/A   Overcast
8:55 AM 70.9 °F - 63.0 °F 76% 29.83 in 10.0 mi SSE 9.2 mph - N/A   Overcast
9:15 AM 71.4 °F - 63.3 °F 76% 29.82 in 10.0 mi SSE 9.2 mph - N/A   Overcast
9:35 AM 72.1 °F - 63.1 °F 73% 29.81 in 10.0 mi SSE 11.5 mph - N/A   Overcast
9:55 AM 72.5 °F - 63.1 °F 72% 29.82 in 10.0 mi South 8.1 mph - N/A   Overcast
10:15 AM 73.2 °F - 63.0 °F 70% 29.82 in 10.0 mi South 9.2 mph - N/A   Overcast
10:35 AM 72.9 °F - 63.0 °F 71% 29.82 in 10.0 mi South 10.4 mph - N/A   Overcast
10:55 AM 73.6 °F - 63.0 °F 69% 29.84 in 10.0 mi South 10.4 mph - N/A   Overcast
11:15 AM 74.3 °F - 62.8 °F 67% 29.84 in 10.0 mi SSW 8.1 mph - N/A   Overcast
11:35 AM 74.5 °F - 63.0 °F 67% 29.84 in 10.0 mi SSW 6.9 mph - N/A   Overcast
11:55 AM 75.2 °F - 63.1 °F 66% 29.85 in 10.0 mi SSW 8.1 mph - N/A   Overcast
12:15 PM 75.6 °F - 63.0 °F 65% 29.85 in 10.0 mi SSW 3.5 mph - N/A   Overcast
12:35 PM 76.6 °F - 63.0 °F 62% 29.85 in 10.0 mi SSW 4.6 mph - N/A   Overcast
12:55 PM 77.2 °F - 62.8 °F 61% 29.85 in 10.0 mi SSW 5.8 mph - N/A   Overcast
1:15 PM 78.3 °F - 63.0 °F 59% 29.85 in 10.0 mi West 3.5 mph - N/A   Overcast
1:35 PM 78.8 °F - 63.0 °F 58% 29.84 in 10.0 mi Calm Calm - N/A   Overcast
1:55 PM 80.6 °F 81.8 °F 62.6 °F 54% 29.84 in 10.0 mi SSE 3.5 mph - N/A   Mostly Cloudy
2:15 PM 80.2 °F 81.5 °F 62.8 °F 55% 29.83 in 10.0 mi ESE 3.5 mph - N/A   Mostly Cloudy
2:35 PM 81.5 °F 82.7 °F 62.8 °F 53% 29.83 in 10.0 mi South 9.2 mph - N/A   Mostly Cloudy
2:55 PM 81.7 °F 82.7 °F 62.2 °F 52% 29.83 in 10.0 mi SSE 8.1 mph - N/A   Overcast
3:15 PM 81.9 °F 82.8 °F 61.9 °F 51% 29.83 in 10.0 mi SSE 4.6 mph 9.2 mph N/A   Overcast
3:35 PM 82.2 °F 83.0 °F 62.1 °F 50% 29.83 in 10.0 mi SSE 11.5 mph - N/A   Overcast
3:55 PM 84.6 °F 85.0 °F 61.9 °F 46% 29.83 in 10.0 mi SW 9.2 mph - N/A   Mostly Cloudy
4:15 PM 83.5 °F 84.3 °F 62.2 °F 49% 29.83 in 10.0 mi South 6.9 mph - N/A   Scattered Clouds
4:35 PM 84.2 °F 84.8 °F 62.2 °F 47% 29.83 in 10.0 mi SSW 6.9 mph - N/A   Mostly Cloudy
4:55 PM 84.7 °F 85.2 °F 62.1 °F 46% 29.83 in 10.0 mi SSE 3.5 mph - N/A   Scattered Clouds
5:15 PM 84.9 °F 85.2 °F 61.3 °F 45% 29.82 in 10.0 mi SSW 5.8 mph - N/A   Scattered Clouds
5:35 PM 85.3 °F 85.9 °F 62.1 °F 46% 29.82 in 10.0 mi Calm Calm - N/A   Clear
5:55 PM 85.5 °F 86.1 °F 62.6 °F 46% 29.82 in 10.0 mi SSW 3.5 mph - N/A   Clear
6:15 PM 86.5 °F 87.6 °F 63.3 °F 46% 29.81 in 10.0 mi South 6.9 mph - N/A   Clear
6:35 PM 86.2 °F 87.3 °F 63.5 °F 47% 29.82 in 10.0 mi South 3.5 mph - N/A   Clear
6:55 PM 86.7 °F 88.1 °F 64.4 °F 47% 29.82 in 10.0 mi Calm Calm - N/A   Clear
7:15 PM 86.2 °F 87.3 °F 64.0 °F 47% 29.82 in 10.0 mi Calm Calm - N/A   Clear
7:35 PM 86.0 °F 87.1 °F 63.9 °F 47% 29.82 in 10.0 mi Calm Calm - N/A   Clear
7:55 PM 85.1 °F 87.1 °F 65.7 °F 52% 29.82 in 10.0 mi Calm Calm - N/A   Clear
8:15 PM 83.5 °F 85.5 °F 65.8 °F 55% 29.82 in 10.0 mi NNE 5.8 mph - N/A   Clear
8:35 PM 81.7 °F 84.0 °F 66.4 °F 60% 29.82 in 10.0 mi NNE 4.6 mph - N/A   Clear
8:55 PM 80.8 °F 82.9 °F 66.2 °F 61% 29.82 in 10.0 mi NNE 4.6 mph - N/A   Clear
9:15 PM 79.0 °F - 65.8 °F 64% 29.83 in 10.0 mi NE 3.5 mph - N/A   Clear
9:35 PM 77.9 °F - 66.2 °F 67% 29.84 in 10.0 mi NE 6.9 mph - N/A   Clear
9:55 PM 75.0 °F - 66.4 °F 74% 29.84 in 10.0 mi NE 4.6 mph - N/A   Clear
10:15 PM 74.8 °F - 65.8 °F 73% 29.84 in 10.0 mi ENE 5.8 mph - N/A   Clear
10:35 PM 74.5 °F - 66.0 °F 75% 29.84 in 10.0 mi Calm Calm - N/A   Clear
10:55 PM 73.9 °F - 66.2 °F 77% 29.84 in 10.0 mi Calm Calm - N/A   Clear
11:15 PM 73.8 °F - 66.6 °F 78% 29.83 in 10.0 mi NE 3.5 mph - N/A   Clear
11:35 PM 71.6 °F - 66.6 °F 84% 29.83 in 10.0 mi Calm Calm - N/A   Clear
11:55 PM 71.8 °F - 66.6 °F 84% 29.82 in 10.0 mi Calm Calm - N/A   Clear